owner,sensor,date,latitude,longitude,vertical_datum,sea_water_temperature,qcFlag 
Scripps,ioos:station:wmo:42099:1,2014-02-01T00:22:00Z,27.3400,-84.2750,0.0,19.6,2 
Scripps,ioos:station:wmo:42099:1,2014-02-01T00:52:00Z,27.3400,-84.2750,0.0,19.65,2 
Scripps,ioos:station:wmo:42099:1,2014-02-01T01:22:00Z,27.3400,-84.2750,0.0,19.75,2 
Scripps,ioos:station:wmo:42099:1,2014-02-01T01:52:00Z,27.3400,-84.2750,0.0,19.85,2 
Scripps,ioos:station:wmo:42099:1,2014-02-01T02:22:00Z,27.3400,-84.2750,0.0,19.85,2 
Scripps,ioos:station:wmo:42099:1,2014-02-01T02:52:00Z,27.3400,-84.2750,0.0,19.85,2 
Scripps,ioos:station:wmo:42099:1,2014-02-01T03:22:00Z,27.3400,-84.2750,0.0,19.9,2 
Scripps,ioos:station:wmo:42099:1,2014-02-01T03:52:00Z,27.3400,-84.2750,0.0,19.95,2 
Scripps,ioos:station:wmo:42099:1,2014-02-01T04:22:00Z,27.3400,-84.2750,0.0,19.95,2 
Scripps,ioos:station:wmo:42099:1,2014-02-01T04:52:00Z,27.3400,-84.2750,0.0,19.95,2 
Scripps,ioos:station:wmo:42099:1,2014-02-01T05:22:00Z,27.3400,-84.2750,0.0,20.0,2 
Scripps,ioos:station:wmo:42099:1,2014-02-01T06:22:00Z,27.3400,-84.2750,0.0,20.05,2 
Scripps,ioos:station:wmo:42099:1,2014-02-01T07:22:00Z,27.3400,-84.2750,0.0,20.05,2 
Scripps,ioos:station:wmo:42099:1,2014-02-01T07:52:00Z,27.3400,-84.2750,0.0,20.05,2 
Scripps,ioos:station:wmo:42099:1,2014-02-01T08:22:00Z,27.3400,-84.2750,0.0,20.0,2 
Scripps,ioos:station:wmo:42099:1,2014-02-01T08:52:00Z,27.3400,-84.2750,0.0,20.0,2 
Scripps,ioos:station:wmo:42099:1,2014-02-01T09:22:00Z,27.3400,-84.2750,0.0,20.0,2 
Scripps,ioos:station:wmo:42099:1,2014-02-01T09:52:00Z,27.3400,-84.2750,0.0,20.05,2 
Scripps,ioos:station:wmo:42099:1,2014-02-01T10:22:00Z,27.3400,-84.2750,0.0,20.0,2 
Scripps,ioos:station:wmo:42099:1,2014-02-01T10:52:00Z,27.3400,-84.2750,0.0,20.0,2 
Scripps,ioos:station:wmo:42099:1,2014-02-01T11:22:00Z,27.3400,-84.2750,0.0,20.15,2 
Scripps,ioos:station:wmo:42099:1,2014-02-01T11:52:00Z,27.3400,-84.2750,0.0,20.15,2 
Scripps,ioos:station:wmo:42099:1,2014-02-01T12:22:00Z,27.3400,-84.2750,0.0,20.15,2 
Scripps,ioos:station:wmo:42099:1,2014-02-01T12:52:00Z,27.3400,-84.2750,0.0,20.2,2 
Scripps,ioos:station:wmo:42099:1,2014-02-01T13:22:00Z,27.3400,-84.2750,0.0,20.2,2 
Scripps,ioos:station:wmo:42099:1,2014-02-01T13:52:00Z,27.3400,-84.2750,0.0,20.15,2 
Scripps,ioos:station:wmo:42099:1,2014-02-01T14:22:00Z,27.3400,-84.2750,0.0,20.2,2 
Scripps,ioos:station:wmo:42099:1,2014-02-01T14:52:00Z,27.3400,-84.2750,0.0,20.2,2 
Scripps,ioos:station:wmo:42099:1,2014-02-01T15:22:00Z,27.3400,-84.2750,0.0,20.2,2 
Scripps,ioos:station:wmo:42099:1,2014-02-01T15:52:00Z,27.3400,-84.2750,0.0,20.25,2 
Scripps,ioos:station:wmo:42099:1,2014-02-01T16:22:00Z,27.3400,-84.2750,0.0,20.3,2 
Scripps,ioos:station:wmo:42099:1,2014-02-01T16:52:00Z,27.3400,-84.2750,0.0,20.45,2 
Scripps,ioos:station:wmo:42099:1,2014-02-01T17:22:00Z,27.3400,-84.2750,0.0,20.65,2 
Scripps,ioos:station:wmo:42099:1,2014-02-01T17:52:00Z,27.3400,-84.2750,0.0,21.05,2 
Scripps,ioos:station:wmo:42099:1,2014-02-01T18:22:00Z,27.3400,-84.2750,0.0,21.35,2 
Scripps,ioos:station:wmo:42099:1,2014-02-01T18:52:00Z,27.3400,-84.2750,0.0,21.45,2 
Scripps,ioos:station:wmo:42099:1,2014-02-01T19:22:00Z,27.3400,-84.2750,0.0,21.75,2 
Scripps,ioos:station:wmo:42099:1,2014-02-01T19:52:00Z,27.3400,-84.2750,0.0,21.4,2 
Scripps,ioos:station:wmo:42099:1,2014-02-01T20:22:00Z,27.3400,-84.2750,0.0,21.15,2 
Scripps,ioos:station:wmo:42099:1,2014-02-01T20:52:00Z,27.3400,-84.2750,0.0,20.95,2 
Scripps,ioos:station:wmo:42099:1,2014-02-01T21:22:00Z,27.3400,-84.2750,0.0,20.95,2 
Scripps,ioos:station:wmo:42099:1,2014-02-01T21:52:00Z,27.3400,-84.2750,0.0,20.75,2 
Scripps,ioos:station:wmo:42099:1,2014-02-01T22:52:00Z,27.3400,-84.2750,0.0,20.8,2 
Scripps,ioos:station:wmo:42099:1,2014-02-01T23:22:00Z,27.3400,-84.2750,0.0,20.8,2 
Scripps,ioos:station:wmo:42099:1,2014-02-01T23:52:00Z,27.3400,-84.2750,0.0,20.7,2 
Scripps,ioos:station:wmo:42099:1,2014-02-02T00:22:00Z,27.3400,-84.2750,0.0,20.6,2 
Scripps,ioos:station:wmo:42099:1,2014-02-02T00:52:00Z,27.3400,-84.2750,0.0,20.6,2 
Scripps,ioos:station:wmo:42099:1,2014-02-02T01:22:00Z,27.3400,-84.2750,0.0,20.5,2 
Scripps,ioos:station:wmo:42099:1,2014-02-02T01:52:00Z,27.3400,-84.2750,0.0,20.5,2 
Scripps,ioos:station:wmo:42099:1,2014-02-02T02:22:00Z,27.3400,-84.2750,0.0,20.45,2 
Scripps,ioos:station:wmo:42099:1,2014-02-02T02:52:00Z,27.3400,-84.2750,0.0,20.4,2 
Scripps,ioos:station:wmo:42099:1,2014-02-02T03:22:00Z,27.3400,-84.2750,0.0,20.35,2 
Scripps,ioos:station:wmo:42099:1,2014-02-02T03:52:00Z,27.3400,-84.2750,0.0,20.3,2 
Scripps,ioos:station:wmo:42099:1,2014-02-02T04:22:00Z,27.3400,-84.2750,0.0,20.25,2 
Scripps,ioos:station:wmo:42099:1,2014-02-02T04:52:00Z,27.3400,-84.2750,0.0,20.75,2 
Scripps,ioos:station:wmo:42099:1,2014-02-02T05:22:00Z,27.3400,-84.2750,0.0,20.75,2 
Scripps,ioos:station:wmo:42099:1,2014-02-02T05:52:00Z,27.3400,-84.2750,0.0,20.7,2 
Scripps,ioos:station:wmo:42099:1,2014-02-02T06:22:00Z,27.3400,-84.2750,0.0,20.6,2 
Scripps,ioos:station:wmo:42099:1,2014-02-02T06:52:00Z,27.3400,-84.2750,0.0,20.55,2 
Scripps,ioos:station:wmo:42099:1,2014-02-02T07:22:00Z,27.3400,-84.2750,0.0,20.5,2 
Scripps,ioos:station:wmo:42099:1,2014-02-02T07:52:00Z,27.3400,-84.2750,0.0,20.5,2 
Scripps,ioos:station:wmo:42099:1,2014-02-02T08:22:00Z,27.3400,-84.2750,0.0,20.45,2 
Scripps,ioos:station:wmo:42099:1,2014-02-02T08:52:00Z,27.3400,-84.2750,0.0,20.45,2 
Scripps,ioos:station:wmo:42099:1,2014-02-02T09:22:00Z,27.3400,-84.2750,0.0,20.45,2 
Scripps,ioos:station:wmo:42099:1,2014-02-02T09:52:00Z,27.3400,-84.2750,0.0,20.45,2 
Scripps,ioos:station:wmo:42099:1,2014-02-02T10:22:00Z,27.3400,-84.2750,0.0,20.4,2 
Scripps,ioos:station:wmo:42099:1,2014-02-02T10:52:00Z,27.3400,-84.2750,0.0,20.4,2 
Scripps,ioos:station:wmo:42099:1,2014-02-02T11:22:00Z,27.3400,-84.2750,0.0,20.4,2 
Scripps,ioos:station:wmo:42099:1,2014-02-02T11:52:00Z,27.3400,-84.2750,0.0,20.4,2 
Scripps,ioos:station:wmo:42099:1,2014-02-02T12:22:00Z,27.3400,-84.2750,0.0,20.4,2 
Scripps,ioos:station:wmo:42099:1,2014-02-02T12:52:00Z,27.3400,-84.2750,0.0,20.35,2 
Scripps,ioos:station:wmo:42099:1,2014-02-02T13:22:00Z,27.3400,-84.2750,0.0,20.4,2 
Scripps,ioos:station:wmo:42099:1,2014-02-02T13:52:00Z,27.3400,-84.2750,0.0,20.4,2 
Scripps,ioos:station:wmo:42099:1,2014-02-02T14:22:00Z,27.3400,-84.2750,0.0,20.4,2 
Scripps,ioos:station:wmo:42099:1,2014-02-02T14:52:00Z,27.3400,-84.2750,0.0,20.4,2 
Scripps,ioos:station:wmo:42099:1,2014-02-02T15:22:00Z,27.3400,-84.2750,0.0,20.4,2 
Scripps,ioos:station:wmo:42099:1,2014-02-02T15:52:00Z,27.3400,-84.2750,0.0,20.75,2 
Scripps,ioos:station:wmo:42099:1,2014-02-02T16:22:00Z,27.3400,-84.2750,0.0,21.1,2 
Scripps,ioos:station:wmo:42099:1,2014-02-02T17:22:00Z,27.3400,-84.2750,0.0,21.2,2 
Scripps,ioos:station:wmo:42099:1,2014-02-02T17:52:00Z,27.3400,-84.2750,0.0,21.3,2 
Scripps,ioos:station:wmo:42099:1,2014-02-02T18:22:00Z,27.3400,-84.2750,0.0,21.35,2 
Scripps,ioos:station:wmo:42099:1,2014-02-02T18:52:00Z,27.3400,-84.2750,0.0,21.45,2 
Scripps,ioos:station:wmo:42099:1,2014-02-02T19:22:00Z,27.3400,-84.2750,0.0,21.5,2 
Scripps,ioos:station:wmo:42099:1,2014-02-02T19:52:00Z,27.3400,-84.2750,0.0,21.6,2 
Scripps,ioos:station:wmo:42099:1,2014-02-02T20:22:00Z,27.3400,-84.2750,0.0,21.65,2 
Scripps,ioos:station:wmo:42099:1,2014-02-02T20:52:00Z,27.3400,-84.2750,0.0,21.65,2 
Scripps,ioos:station:wmo:42099:1,2014-02-02T21:52:00Z,27.3400,-84.2750,0.0,21.6,2 
Scripps,ioos:station:wmo:42099:1,2014-02-02T22:22:00Z,27.3400,-84.2750,0.0,21.6,2 
Scripps,ioos:station:wmo:42099:1,2014-02-02T22:52:00Z,27.3400,-84.2750,0.0,21.55,2 
Scripps,ioos:station:wmo:42099:1,2014-02-02T23:22:00Z,27.3400,-84.2750,0.0,21.45,2 
Scripps,ioos:station:wmo:42099:1,2014-02-02T23:52:00Z,27.3400,-84.2750,0.0,21.45,2 
Scripps,ioos:station:wmo:42099:1,2014-02-03T00:22:00Z,27.3400,-84.2750,0.0,21.45,2 
Scripps,ioos:station:wmo:42099:1,2014-02-03T00:52:00Z,27.3400,-84.2750,0.0,21.45,2 
Scripps,ioos:station:wmo:42099:1,2014-02-03T01:22:00Z,27.3400,-84.2750,0.0,21.45,2 
Scripps,ioos:station:wmo:42099:1,2014-02-03T01:52:00Z,27.3400,-84.2750,0.0,21.45,2 
Scripps,ioos:station:wmo:42099:1,2014-02-03T02:22:00Z,27.3400,-84.2750,0.0,21.4,2 
Scripps,ioos:station:wmo:42099:1,2014-02-03T02:52:00Z,27.3400,-84.2750,0.0,21.45,2 
Scripps,ioos:station:wmo:42099:1,2014-02-03T03:22:00Z,27.3400,-84.2750,0.0,21.5,2 
Scripps,ioos:station:wmo:42099:1,2014-02-03T04:22:00Z,27.3400,-84.2750,0.0,21.5,2 
Scripps,ioos:station:wmo:42099:1,2014-02-03T04:52:00Z,27.3400,-84.2750,0.0,21.45,2 
Scripps,ioos:station:wmo:42099:1,2014-02-03T05:22:00Z,27.3400,-84.2750,0.0,21.3,2 
Scripps,ioos:station:wmo:42099:1,2014-02-03T05:52:00Z,27.3400,-84.2750,0.0,21.25,2 
Scripps,ioos:station:wmo:42099:1,2014-02-03T06:52:00Z,27.3400,-84.2750,0.0,21.1,2 
Scripps,ioos:station:wmo:42099:1,2014-02-03T07:22:00Z,27.3400,-84.2750,0.0,21.05,2 
Scripps,ioos:station:wmo:42099:1,2014-02-03T07:52:00Z,27.3400,-84.2750,0.0,21.0,2 
Scripps,ioos:station:wmo:42099:1,2014-02-03T08:22:00Z,27.3400,-84.2750,0.0,21.05,2 
Scripps,ioos:station:wmo:42099:1,2014-02-03T08:52:00Z,27.3400,-84.2750,0.0,20.95,2 
Scripps,ioos:station:wmo:42099:1,2014-02-03T09:22:00Z,27.3400,-84.2750,0.0,20.95,2 
Scripps,ioos:station:wmo:42099:1,2014-02-03T10:22:00Z,27.3400,-84.2750,0.0,20.85,2 
Scripps,ioos:station:wmo:42099:1,2014-02-03T10:52:00Z,27.3400,-84.2750,0.0,20.85,2 
Scripps,ioos:station:wmo:42099:1,2014-02-03T11:22:00Z,27.3400,-84.2750,0.0,20.8,2 
Scripps,ioos:station:wmo:42099:1,2014-02-03T11:52:00Z,27.3400,-84.2750,0.0,20.75,2 
Scripps,ioos:station:wmo:42099:1,2014-02-03T12:52:00Z,27.3400,-84.2750,0.0,20.75,2 
Scripps,ioos:station:wmo:42099:1,2014-02-03T13:22:00Z,27.3400,-84.2750,0.0,20.75,2 
Scripps,ioos:station:wmo:42099:1,2014-02-03T13:52:00Z,27.3400,-84.2750,0.0,20.75,2 
Scripps,ioos:station:wmo:42099:1,2014-02-03T14:22:00Z,27.3400,-84.2750,0.0,20.85,2 
Scripps,ioos:station:wmo:42099:1,2014-02-03T14:52:00Z,27.3400,-84.2750,0.0,20.85,2 
Scripps,ioos:station:wmo:42099:1,2014-02-03T15:22:00Z,27.3400,-84.2750,0.0,20.8,2 
Scripps,ioos:station:wmo:42099:1,2014-02-03T15:52:00Z,27.3400,-84.2750,0.0,20.75,2 
Scripps,ioos:station:wmo:42099:1,2014-02-03T16:22:00Z,27.3400,-84.2750,0.0,20.75,2 
Scripps,ioos:station:wmo:42099:1,2014-02-03T17:22:00Z,27.3400,-84.2750,0.0,20.8,2 
Scripps,ioos:station:wmo:42099:1,2014-02-03T17:52:00Z,27.3400,-84.2750,0.0,20.9,2 
Scripps,ioos:station:wmo:42099:1,2014-02-03T18:22:00Z,27.3400,-84.2750,0.0,20.95,2 
Scripps,ioos:station:wmo:42099:1,2014-02-03T18:52:00Z,27.3400,-84.2750,0.0,21.0,2 
Scripps,ioos:station:wmo:42099:1,2014-02-03T19:22:00Z,27.3400,-84.2750,0.0,21.0,2 
Scripps,ioos:station:wmo:42099:1,2014-02-03T19:52:00Z,27.3400,-84.2750,0.0,20.95,2 
Scripps,ioos:station:wmo:42099:1,2014-02-03T20:22:00Z,27.3400,-84.2750,0.0,20.95,2 
Scripps,ioos:station:wmo:42099:1,2014-02-03T20:52:00Z,27.3400,-84.2750,0.0,20.9,2 
Scripps,ioos:station:wmo:42099:1,2014-02-03T21:22:00Z,27.3400,-84.2750,0.0,20.9,2 
Scripps,ioos:station:wmo:42099:1,2014-02-03T21:52:00Z,27.3400,-84.2750,0.0,20.9,2 
Scripps,ioos:station:wmo:42099:1,2014-02-03T22:22:00Z,27.3400,-84.2750,0.0,20.9,2 
Scripps,ioos:station:wmo:42099:1,2014-02-04T00:22:00Z,27.3400,-84.2750,0.0,21.0,2 
Scripps,ioos:station:wmo:42099:1,2014-02-04T01:22:00Z,27.3400,-84.2750,0.0,20.95,2 
Scripps,ioos:station:wmo:42099:1,2014-02-04T01:52:00Z,27.3400,-84.2750,0.0,20.9,2 
Scripps,ioos:station:wmo:42099:1,2014-02-04T02:22:00Z,27.3400,-84.2750,0.0,20.85,2 
Scripps,ioos:station:wmo:42099:1,2014-02-04T02:52:00Z,27.3400,-84.2750,0.0,20.8,2 
Scripps,ioos:station:wmo:42099:1,2014-02-04T03:22:00Z,27.3400,-84.2750,0.0,20.75,2 
Scripps,ioos:station:wmo:42099:1,2014-02-04T03:52:00Z,27.3400,-84.2750,0.0,20.75,2 
Scripps,ioos:station:wmo:42099:1,2014-02-04T04:22:00Z,27.3400,-84.2750,0.0,20.7,2 
Scripps,ioos:station:wmo:42099:1,2014-02-04T04:52:00Z,27.3400,-84.2750,0.0,20.65,2 
Scripps,ioos:station:wmo:42099:1,2014-02-14T14:52:00Z,27.3400,-84.2750,0.0,20.5,2 
Scripps,ioos:station:wmo:42099:1,2014-02-14T15:22:00Z,27.3400,-84.2750,0.0,20.55,2 
Scripps,ioos:station:wmo:42099:1,2014-02-14T15:52:00Z,27.3400,-84.2750,0.0,20.7,2 
Scripps,ioos:station:wmo:42099:1,2014-02-14T16:22:00Z,27.3400,-84.2750,0.0,20.75,2 
Scripps,ioos:station:wmo:42099:1,2014-02-14T16:52:00Z,27.3400,-84.2750,0.0,20.85,2 
Scripps,ioos:station:wmo:42099:1,2014-02-14T17:52:00Z,27.3400,-84.2750,0.0,20.9,2 
Scripps,ioos:station:wmo:42099:1,2014-02-14T18:22:00Z,27.3400,-84.2750,0.0,20.85,2 
Scripps,ioos:station:wmo:42099:1,2014-02-14T18:52:00Z,27.3400,-84.2750,0.0,20.95,2 
Scripps,ioos:station:wmo:42099:1,2014-02-14T19:22:00Z,27.3400,-84.2750,0.0,20.85,2 
Scripps,ioos:station:wmo:42099:1,2014-02-14T19:52:00Z,27.3400,-84.2750,0.0,20.75,2 
Scripps,ioos:station:wmo:42099:1,2014-02-14T20:22:00Z,27.3400,-84.2750,0.0,20.75,2 
Scripps,ioos:station:wmo:42099:1,2014-02-14T21:22:00Z,27.3400,-84.2750,0.0,20.7,2 
Scripps,ioos:station:wmo:42099:1,2014-02-14T21:52:00Z,27.3400,-84.2750,0.0,20.65,2 
Scripps,ioos:station:wmo:42099:1,2014-02-14T22:52:00Z,27.3400,-84.2750,0.0,20.55,2 
Scripps,ioos:station:wmo:42099:1,2014-02-14T23:22:00Z,27.3400,-84.2750,0.0,20.55,2 
Scripps,ioos:station:wmo:42099:1,2014-02-14T23:52:00Z,27.3400,-84.2750,0.0,20.5,2 
Scripps,ioos:station:wmo:42099:1,2014-02-15T00:22:00Z,27.3400,-84.2750,0.0,20.5,2 
Scripps,ioos:station:wmo:42099:1,2014-02-15T00:52:00Z,27.3400,-84.2750,0.0,20.5,2 
Scripps,ioos:station:wmo:42099:1,2014-02-15T01:22:00Z,27.3400,-84.2750,0.0,20.45,2 
Scripps,ioos:station:wmo:42099:1,2014-02-15T01:52:00Z,27.3400,-84.2750,0.0,20.45,2 
Scripps,ioos:station:wmo:42099:1,2014-02-15T02:22:00Z,27.3400,-84.2750,0.0,20.5,2 
Scripps,ioos:station:wmo:42099:1,2014-02-15T02:52:00Z,27.3400,-84.2750,0.0,20.45,2 
Scripps,ioos:station:wmo:42099:1,2014-02-15T03:22:00Z,27.3400,-84.2750,0.0,20.45,2 
Scripps,ioos:station:wmo:42099:1,2014-02-15T03:52:00Z,27.3400,-84.2750,0.0,20.45,2 
Scripps,ioos:station:wmo:42099:1,2014-02-15T04:22:00Z,27.3400,-84.2750,0.0,20.45,2 
Scripps,ioos:station:wmo:42099:1,2014-02-15T04:52:00Z,27.3400,-84.2750,0.0,20.45,2 
Scripps,ioos:station:wmo:42099:1,2014-02-15T05:22:00Z,27.3400,-84.2750,0.0,20.45,2 
Scripps,ioos:station:wmo:42099:1,2014-02-15T05:52:00Z,27.3400,-84.2750,0.0,20.4,2 
Scripps,ioos:station:wmo:42099:1,2014-02-15T06:22:00Z,27.3400,-84.2750,0.0,20.4,2 
Scripps,ioos:station:wmo:42099:1,2014-02-15T06:52:00Z,27.3400,-84.2750,0.0,20.4,2 
Scripps,ioos:station:wmo:42099:1,2014-02-15T07:22:00Z,27.3400,-84.2750,0.0,20.4,2 
Scripps,ioos:station:wmo:42099:1,2014-02-15T07:52:00Z,27.3400,-84.2750,0.0,20.4,2 
Scripps,ioos:station:wmo:42099:1,2014-02-15T08:22:00Z,27.3400,-84.2750,0.0,20.4,2 
Scripps,ioos:station:wmo:42099:1,2014-02-15T08:52:00Z,27.3400,-84.2750,0.0,20.35,2 
Scripps,ioos:station:wmo:42099:1,2014-02-15T09:22:00Z,27.3400,-84.2750,0.0,20.35,2 
Scripps,ioos:station:wmo:42099:1,2014-02-15T09:52:00Z,27.3400,-84.2750,0.0,20.35,2 
Scripps,ioos:station:wmo:42099:1,2014-02-15T13:22:00Z,27.3400,-84.2750,0.0,20.35,2 
Scripps,ioos:station:wmo:42099:1,2014-02-15T15:22:00Z,27.3400,-84.2750,0.0,20.35,2 
Scripps,ioos:station:wmo:42099:1,2014-02-15T15:52:00Z,27.3400,-84.2750,0.0,20.35,2 
Scripps,ioos:station:wmo:42099:1,2014-02-15T16:22:00Z,27.3400,-84.2750,0.0,20.4,2 
Scripps,ioos:station:wmo:42099:1,2014-02-15T16:52:00Z,27.3400,-84.2750,0.0,20.4,2 
Scripps,ioos:station:wmo:42099:1,2014-02-15T17:22:00Z,27.3400,-84.2750,0.0,20.4,2 
Scripps,ioos:station:wmo:42099:1,2014-02-15T17:52:00Z,27.3400,-84.2750,0.0,20.4,2 
Scripps,ioos:station:wmo:42099:1,2014-02-15T18:22:00Z,27.3400,-84.2750,0.0,20.4,2 
Scripps,ioos:station:wmo:42099:1,2014-02-15T18:52:00Z,27.3400,-84.2750,0.0,20.4,2 
Scripps,ioos:station:wmo:42099:1,2014-02-15T19:22:00Z,27.3400,-84.2750,0.0,20.4,2 
Scripps,ioos:station:wmo:42099:1,2014-02-15T19:52:00Z,27.3400,-84.2750,0.0,20.35,2 
Scripps,ioos:station:wmo:42099:1,2014-02-15T20:22:00Z,27.3400,-84.2750,0.0,20.3,2 
Scripps,ioos:station:wmo:42099:1,2014-02-15T20:52:00Z,27.3400,-84.2750,0.0,20.3,2 
Scripps,ioos:station:wmo:42099:1,2014-02-15T21:52:00Z,27.3400,-84.2750,0.0,20.35,2 
Scripps,ioos:station:wmo:42099:1,2014-02-15T22:22:00Z,27.3400,-84.2750,0.0,20.35,2 
Scripps,ioos:station:wmo:42099:1,2014-02-15T22:52:00Z,27.3400,-84.2750,0.0,20.35,2 
Scripps,ioos:station:wmo:42099:1,2014-02-15T23:22:00Z,27.3400,-84.2750,0.0,20.3,2 
Scripps,ioos:station:wmo:42099:1,2014-02-15T23:52:00Z,27.3400,-84.2750,0.0,20.3,2 
Scripps,ioos:station:wmo:42099:1,2014-02-16T00:22:00Z,27.3400,-84.2750,0.0,20.3,2 
Scripps,ioos:station:wmo:42099:1,2014-02-16T00:52:00Z,27.3400,-84.2750,0.0,20.3,2 
Scripps,ioos:station:wmo:42099:1,2014-02-16T01:22:00Z,27.3400,-84.2750,0.0,20.3,2 
Scripps,ioos:station:wmo:42099:1,2014-02-16T01:52:00Z,27.3400,-84.2750,0.0,20.3,2 
Scripps,ioos:station:wmo:42099:1,2014-02-16T02:22:00Z,27.3400,-84.2750,0.0,20.25,2 
Scripps,ioos:station:wmo:42099:1,2014-02-16T03:22:00Z,27.3400,-84.2750,0.0,20.25,2 
Scripps,ioos:station:wmo:42099:1,2014-02-16T03:52:00Z,27.3400,-84.2750,0.0,20.25,2 
Scripps,ioos:station:wmo:42099:1,2014-02-16T04:22:00Z,27.3400,-84.2750,0.0,20.3,2 
Scripps,ioos:station:wmo:42099:1,2014-02-16T04:52:00Z,27.3400,-84.2750,0.0,20.25,2 
Scripps,ioos:station:wmo:42099:1,2014-02-16T05:22:00Z,27.3400,-84.2750,0.0,20.25,2 
Scripps,ioos:station:wmo:42099:1,2014-02-16T06:22:00Z,27.3400,-84.2750,0.0,20.25,2 
Scripps,ioos:station:wmo:42099:1,2014-02-16T06:52:00Z,27.3400,-84.2750,0.0,20.25,2 
Scripps,ioos:station:wmo:42099:1,2014-02-16T07:22:00Z,27.3400,-84.2750,0.0,20.25,2 
Scripps,ioos:station:wmo:42099:1,2014-02-16T07:52:00Z,27.3400,-84.2750,0.0,20.2,2 
Scripps,ioos:station:wmo:42099:1,2014-02-16T08:22:00Z,27.3400,-84.2750,0.0,20.2,2 
Scripps,ioos:station:wmo:42099:1,2014-02-16T08:52:00Z,27.3400,-84.2750,0.0,20.2,2 
Scripps,ioos:station:wmo:42099:1,2014-02-16T09:22:00Z,27.3400,-84.2750,0.0,20.2,2 
Scripps,ioos:station:wmo:42099:1,2014-02-16T09:52:00Z,27.3400,-84.2750,0.0,20.2,2 
Scripps,ioos:station:wmo:42099:1,2014-02-16T10:22:00Z,27.3400,-84.2750,0.0,20.15,2 
Scripps,ioos:station:wmo:42099:1,2014-02-16T11:52:00Z,27.3400,-84.2750,0.0,20.15,2 
Scripps,ioos:station:wmo:42099:1,2014-02-16T12:22:00Z,27.3400,-84.2750,0.0,20.2,2 
Scripps,ioos:station:wmo:42099:1,2014-02-16T13:22:00Z,27.3400,-84.2750,0.0,20.2,2 
Scripps,ioos:station:wmo:42099:1,2014-02-16T13:52:00Z,27.3400,-84.2750,0.0,20.2,2 
Scripps,ioos:station:wmo:42099:1,2014-02-16T14:22:00Z,27.3400,-84.2750,0.0,20.25,2 
Scripps,ioos:station:wmo:42099:1,2014-02-16T14:52:00Z,27.3400,-84.2750,0.0,20.35,2 
Scripps,ioos:station:wmo:42099:1,2014-02-16T15:22:00Z,27.3400,-84.2750,0.0,20.4,2 
Scripps,ioos:station:wmo:42099:1,2014-02-16T15:52:00Z,27.3400,-84.2750,0.0,20.5,2 
Scripps,ioos:station:wmo:42099:1,2014-02-16T16:22:00Z,27.3400,-84.2750,0.0,20.6,2 
Scripps,ioos:station:wmo:42099:1,2014-02-16T16:52:00Z,27.3400,-84.2750,0.0,20.8,2 
Scripps,ioos:station:wmo:42099:1,2014-02-16T17:22:00Z,27.3400,-84.2750,0.0,21.0,2 
Scripps,ioos:station:wmo:42099:1,2014-02-16T17:52:00Z,27.3400,-84.2750,0.0,21.1,2 
Scripps,ioos:station:wmo:42099:1,2014-02-16T18:22:00Z,27.3400,-84.2750,0.0,21.15,2 
Scripps,ioos:station:wmo:42099:1,2014-02-16T18:52:00Z,27.3400,-84.2750,0.0,21.3,2 
Scripps,ioos:station:wmo:42099:1,2014-02-16T19:22:00Z,27.3400,-84.2750,0.0,21.2,2 
Scripps,ioos:station:wmo:42099:1,2014-02-16T19:52:00Z,27.3400,-84.2750,0.0,21.2,2 
Scripps,ioos:station:wmo:42099:1,2014-02-16T20:22:00Z,27.3400,-84.2750,0.0,21.3,2 
Scripps,ioos:station:wmo:42099:1,2014-02-16T20:52:00Z,27.3400,-84.2750,0.0,21.25,2 
Scripps,ioos:station:wmo:42099:1,2014-02-16T21:22:00Z,27.3400,-84.2750,0.0,21.2,2 
Scripps,ioos:station:wmo:42099:1,2014-02-16T21:52:00Z,27.3400,-84.2750,0.0,21.05,2 
Scripps,ioos:station:wmo:42099:1,2014-02-16T22:22:00Z,27.3400,-84.2750,0.0,20.95,2 
Scripps,ioos:station:wmo:42099:1,2014-02-16T22:52:00Z,27.3400,-84.2750,0.0,21.15,2 
Scripps,ioos:station:wmo:42099:1,2014-02-16T23:22:00Z,27.3400,-84.2750,0.0,20.95,2 
Scripps,ioos:station:wmo:42099:1,2014-02-16T23:52:00Z,27.3400,-84.2750,0.0,20.8,2 
Scripps,ioos:station:wmo:42099:1,2014-02-17T00:22:00Z,27.3400,-84.2750,0.0,20.7,2 
Scripps,ioos:station:wmo:42099:1,2014-02-17T00:52:00Z,27.3400,-84.2750,0.0,20.65,2 
Scripps,ioos:station:wmo:42099:1,2014-02-17T01:22:00Z,27.3400,-84.2750,0.0,20.55,2 
Scripps,ioos:station:wmo:42099:1,2014-02-17T01:52:00Z,27.3400,-84.2750,0.0,20.5,2 
Scripps,ioos:station:wmo:42099:1,2014-02-17T02:22:00Z,27.3400,-84.2750,0.0,20.45,2 
Scripps,ioos:station:wmo:42099:1,2014-02-17T02:52:00Z,27.3400,-84.2750,0.0,20.45,2 
Scripps,ioos:station:wmo:42099:1,2014-02-17T03:22:00Z,27.3400,-84.2750,0.0,20.45,2 
Scripps,ioos:station:wmo:42099:1,2014-02-17T03:52:00Z,27.3400,-84.2750,0.0,20.4,2 
Scripps,ioos:station:wmo:42099:1,2014-02-17T04:22:00Z,27.3400,-84.2750,0.0,20.4,2 
Scripps,ioos:station:wmo:42099:1,2014-02-17T04:52:00Z,27.3400,-84.2750,0.0,20.4,2 
Scripps,ioos:station:wmo:42099:1,2014-02-17T05:22:00Z,27.3400,-84.2750,0.0,20.35,2 
Scripps,ioos:station:wmo:42099:1,2014-02-17T05:52:00Z,27.3400,-84.2750,0.0,20.35,2 
Scripps,ioos:station:wmo:42099:1,2014-02-17T06:22:00Z,27.3400,-84.2750,0.0,20.35,2 
Scripps,ioos:station:wmo:42099:1,2014-02-17T06:52:00Z,27.3400,-84.2750,0.0,20.35,2 
Scripps,ioos:station:wmo:42099:1,2014-02-17T07:22:00Z,27.3400,-84.2750,0.0,20.3,2 
Scripps,ioos:station:wmo:42099:1,2014-02-17T07:52:00Z,27.3400,-84.2750,0.0,20.3,2 
Scripps,ioos:station:wmo:42099:1,2014-02-17T08:22:00Z,27.3400,-84.2750,0.0,20.3,2 
Scripps,ioos:station:wmo:42099:1,2014-02-17T08:52:00Z,27.3400,-84.2750,0.0,20.3,2 
Scripps,ioos:station:wmo:42099:1,2014-02-17T09:22:00Z,27.3400,-84.2750,0.0,20.25,2 
Scripps,ioos:station:wmo:42099:1,2014-02-17T09:52:00Z,27.3400,-84.2750,0.0,20.25,2 
Scripps,ioos:station:wmo:42099:1,2014-02-17T10:22:00Z,27.3400,-84.2750,0.0,20.2,2 
Scripps,ioos:station:wmo:42099:1,2014-02-17T10:52:00Z,27.3400,-84.2750,0.0,20.2,2 
Scripps,ioos:station:wmo:42099:1,2014-02-17T11:22:00Z,27.3400,-84.2750,0.0,20.2,2 
Scripps,ioos:station:wmo:42099:1,2014-02-17T11:52:00Z,27.3400,-84.2750,0.0,20.15,2 
Scripps,ioos:station:wmo:42099:1,2014-02-17T12:22:00Z,27.3400,-84.2750,0.0,20.15,2 
Scripps,ioos:station:wmo:42099:1,2014-02-17T12:52:00Z,27.3400,-84.2750,0.0,20.15,2 
Scripps,ioos:station:wmo:42099:1,2014-02-17T13:22:00Z,27.3400,-84.2750,0.0,20.15,2 
Scripps,ioos:station:wmo:42099:1,2014-02-17T13:52:00Z,27.3400,-84.2750,0.0,20.15,2 
Scripps,ioos:station:wmo:42099:1,2014-02-17T14:22:00Z,27.3400,-84.2750,0.0,20.2,2 
Scripps,ioos:station:wmo:42099:1,2014-02-17T14:52:00Z,27.3400,-84.2750,0.0,20.2,2 
Scripps,ioos:station:wmo:42099:1,2014-02-17T15:22:00Z,27.3400,-84.2750,0.0,20.25,2 
Scripps,ioos:station:wmo:42099:1,2014-02-17T15:52:00Z,27.3400,-84.2750,0.0,20.25,2 
Scripps,ioos:station:wmo:42099:1,2014-02-17T16:22:00Z,27.3400,-84.2750,0.0,20.3,2 
Scripps,ioos:station:wmo:42099:1,2014-02-17T16:52:00Z,27.3400,-84.2750,0.0,20.3,2 
Scripps,ioos:station:wmo:42099:1,2014-02-17T17:52:00Z,27.3400,-84.2750,0.0,20.4,2 
Scripps,ioos:station:wmo:42099:1,2014-02-17T18:22:00Z,27.3400,-84.2750,0.0,20.4,2 
Scripps,ioos:station:wmo:42099:1,2014-02-17T18:52:00Z,27.3400,-84.2750,0.0,20.45,2 
Scripps,ioos:station:wmo:42099:1,2014-02-17T19:52:00Z,27.3400,-84.2750,0.0,20.55,2 
Scripps,ioos:station:wmo:42099:1,2014-02-17T20:22:00Z,27.3400,-84.2750,0.0,20.6,2 
Scripps,ioos:station:wmo:42099:1,2014-02-17T20:52:00Z,27.3400,-84.2750,0.0,20.65,2 
Scripps,ioos:station:wmo:42099:1,2014-02-17T21:22:00Z,27.3400,-84.2750,0.0,20.65,2 
Scripps,ioos:station:wmo:42099:1,2014-02-17T21:52:00Z,27.3400,-84.2750,0.0,20.6,2 
Scripps,ioos:station:wmo:42099:1,2014-02-17T22:22:00Z,27.3400,-84.2750,0.0,20.55,2 
Scripps,ioos:station:wmo:42099:1,2014-02-17T22:52:00Z,27.3400,-84.2750,0.0,20.5,2 
Scripps,ioos:station:wmo:42099:1,2014-02-17T23:22:00Z,27.3400,-84.2750,0.0,20.45,2 
Scripps,ioos:station:wmo:42099:1,2014-02-17T23:52:00Z,27.3400,-84.2750,0.0,20.45,2 
Scripps,ioos:station:wmo:42099:1,2014-02-18T00:52:00Z,27.3400,-84.2750,0.0,20.45,2 
Scripps,ioos:station:wmo:42099:1,2014-02-18T01:22:00Z,27.3400,-84.2750,0.0,20.45,2 
Scripps,ioos:station:wmo:42099:1,2014-02-18T20:52:00Z,27.3400,-84.2750,0.0,20.8,2 